[[{"header":{"parameterUnit":"m.s-1","parameterCategory":1,"la1":30.2991,"la2":30.254,"lo1":-89.0895,"lo2":-89.0444,"dy":0.0017,"dx":0.0017,"nx":28,"ny":28,"refTime":"2025-04-07T21:00:00:Z","depth":0,"parameterNumber":2,"parameterNumberName":"U-component_of_WINDS"},"data":[0,0,0,0,0,0,0,0,0,0,0,0,0,0,0,0,0,0,0,0,0,0,0,0,0,0,0,0,0,0,0,0,0,0,0,0,0,0,0,0,0,0,0,0,0,0,0,0,0,0,0,0,0,0,0,0,0,0,4.4665,4.4665,0,4.4739,4.474,4.4741,4.4689,4.4687,4.4684,4.4682,4.4758,4.4762,4.4766,0,0,0,0,0,0,0,0,0,0,0,0,0,4.4479,4.4483,4.4665,4.4666,4.4666,4.4739,4.474,4.4741,4.4689,4.4686,4.4684,4.4681,4.4757,4.4762,4.4767,0,0,0,0,0,0,0,0,0,0,0,0,0,4.4557,4.4484,4.4664,4.4649,4.4649,4.4739,4.474,4.4741,4.469,4.4686,4.4683,4.468,4.4755,4.4761,4.4767,4.4876,0,0,4.4786,4.4789,0,0,0,0,0,0,0,0,4.4553,4.4564,4.4651,4.4651,4.465,4.4701,4.4702,4.4786,4.4691,4.4674,4.4682,4.4678,4.4742,4.4749,4.4771,4.488,4.4883,4.4787,4.4791,4.4794,4.4795,0,0,0,0,0,0,0,4.4547,4.4561,4.4694,4.4652,4.4652,4.4639,4.4647,4.4718,4.4727,4.4675,4.4672,4.4681,4.4741,4.4765,4.4772,4.4884,4.4787,4.4792,4.4796,4.4799,4.5089,4.5092,0,0,0,0,0,0,4.4543,4.4556,4.4692,4.4696,4.4592,4.4646,4.4654,4.4688,4.4726,4.4728,4.4684,4.4679,4.4756,4.4765,4.4774,4.4906,4.4793,4.4799,4.4803,4.5085,4.5089,4.5094,0,0,0,0,0,0,4.4539,4.4556,4.4689,4.4625,4.4641,4.4652,4.4692,4.4692,4.4715,4.4733,4.4734,4.4707,4.4753,4.4766,4.4852,4.4908,4.4802,4.4808,4.508,4.5086,4.5092,4.5169,0,0,0,0,0,0,4.4534,4.4555,4.4596,4.4627,4.4645,4.4765,4.4695,4.4696,4.4726,4.472,4.4754,4.4756,4.4751,4.4843,4.4858,4.4915,4.4813,4.5075,4.5083,4.509,4.5162,4.5177,4.519,0,0,0,0,0,4.4528,4.4614,4.4598,4.4615,4.4696,4.4768,4.4778,4.4771,4.4731,4.4773,4.4784,4.4755,4.4899,4.4852,4.4869,4.4928,4.5072,4.5081,4.5089,4.5155,4.5174,4.519,0,0,0,0,0,0,4.4588,4.4618,4.46,4.4699,4.4731,4.4759,4.4811,4.4791,4.4835,4.4827,4.4816,4.4824,4.4915,4.493,4.4877,4.5037,4.4979,4.4992,4.5024,4.5042,4.5055,4.505,4.4818,0,0,0,0,0,4.4613,4.4669,4.4691,4.4776,4.4793,4.48,4.483,4.4822,4.4855,4.4869,4.4886,4.492,4.4973,4.5008,4.5057,4.5164,4.5171,4.5213,4.5227,4.5239,4.525,4.531,4.5329,4.5123,4.5123,4.5123,0,0,4.4665,4.4688,4.4723,4.4789,4.4813,4.4872,4.4811,4.4875,4.4919,4.4878,4.4961,4.4976,4.5012,4.511,4.5154,4.5125,4.5309,4.525,4.5259,4.5264,4.5321,4.534,4.5358,4.5129,4.5128,4.5127,0,0,4.479,4.4812,4.4886,4.4912,4.495,4.4954,4.4972,4.5003,4.5012,4.5095,4.5067,4.5118,4.5209,4.5237,4.5264,4.5402,4.5378,4.5418,4.5493,4.5551,4.5567,4.5582,4.5633,4.5651,4.5429,4.5429,4.543,0,4.4849,4.4936,4.4927,4.4993,4.5024,4.4991,4.5067,4.5092,4.5145,4.5167,4.5134,4.525,4.5272,4.5376,4.541,4.5432,4.5453,4.5414,4.5566,4.558,4.5593,4.5642,4.5661,4.5434,4.5434,4.5433,4.5433,0,4.5008,4.5069,4.5124,4.5177,4.5213,4.5284,4.5287,4.5325,4.5314,4.5322,4.5409,4.5435,4.549,4.5514,4.5503,4.5618,4.56,4.5567,4.5509,4.5618,4.5663,4.5682,4.5441,4.5439,4.5438,4.5437,0,0,4.5172,4.522,4.524,4.5265,4.5305,4.5352,4.5423,4.5477,4.5511,4.5549,4.5608,4.5687,4.5658,4.5688,4.5681,4.5732,4.5842,4.5693,4.5693,4.5721,4.5972,4.5998,4.6019,4.5826,4.583,4.5832,4.597,0,4.53,4.5422,4.5417,4.5532,4.5589,4.556,4.5622,4.5654,4.5664,4.5714,4.5724,4.5781,4.5737,4.5756,4.5805,4.5818,4.5893,4.5808,4.5883,4.5885,4.5875,4.6043,4.6069,4.6197,4.5987,4.599,4.5992,0,4.5465,4.5509,4.563,4.5665,4.5688,4.5744,4.5795,4.5843,4.5879,4.5883,4.5918,4.5903,4.5976,4.5916,4.6016,4.5959,4.599,4.6001,4.6006,4.6013,4.5946,4.6056,4.6238,4.6258,4.602,4.6018,4.6016,0,4.5574,4.5664,4.5749,4.577,4.5812,4.5852,4.5871,4.5904,4.5938,4.5983,4.6005,4.6058,4.6087,4.6128,4.6129,4.6085,4.6231,4.6171,4.6238,4.6238,4.627,4.6268,4.6461,4.6288,4.6288,4.6287,4.6287,0,4.5718,4.5794,4.5799,4.5851,4.5935,4.593,4.6013,4.6029,4.6059,4.6114,4.6092,4.6144,4.6141,4.6195,4.6196,4.628,4.6293,4.6299,4.6298,4.6302,4.6301,4.6322,4.6313,4.6292,4.6291,4.629,4.6289,0,4.5855,4.5861,4.5952,4.5984,4.5994,4.6055,4.6084,4.6134,4.6142,4.6213,4.6229,4.6243,4.6305,4.6309,4.6381,4.6381,4.6485,4.6473,4.6473,4.6471,4.6538,4.6532,4.6752,4.6781,4.6588,4.659,4.6591,0,4.5946,4.6004,4.6044,4.608,4.6101,4.6159,4.6194,4.6191,4.6229,4.6276,4.6321,4.6381,4.6429,4.6531,4.6547,4.6602,4.6593,4.6667,4.6601,4.6604,4.6597,4.6594,4.66,4.6679,4.6682,4.6683,4.6685,0,4.611,4.6111,4.6162,4.6216,4.6259,4.63,4.6339,4.637,4.6372,4.6416,4.648,4.6517,4.6591,4.6652,4.6707,4.6727,4.6707,4.6705,4.6724,4.6728,4.6726,4.673,4.6508,4.67,4.6699,4.6697,4.6697,4.6696,4.6228,4.6279,4.6315,4.6374,4.6403,4.6441,4.649,4.6506,4.6559,4.6619,4.6614,4.6686,4.6723,4.6794,4.6819,4.6876,4.6851,4.6877,4.6884,4.6891,4.6899,4.6716,4.6885,4.6885,4.6884,4.6884,4.6884,0,4.6391,4.6414,4.6468,4.6524,4.6571,4.6548,4.6591,4.6632,4.6695,4.6731,4.678,4.6854,4.6914,4.6936,4.6994,4.7035,4.7028,4.7051,4.7048,4.7054,4.6917,4.6896,4.7056,4.7056,4.7056,4.7056,4.7056,4.7056,4.6482,4.6567,4.6573,4.6674,4.6696,4.6766,4.6792,4.6827,4.6857,4.6941,4.6991,4.7005,4.7036,4.7097,4.7151,4.7156,4.7179,4.7206,4.7208,4.708,4.7063,4.7046,4.7026,4.7211,4.7211,4.734,4.7341,4.7342]},{"header":{"parameterUnit":"m.s-1","parameterCategory":1,"la1":30.2991,"la2":30.254,"lo1":-89.0895,"lo2":-89.0444,"dy":0.0017,"dx":0.0017,"nx":28,"ny":28,"refTime":"2025-04-07T21:00:00:Z","depth":0,"parameterNumber":3,"parameterNumberName":"V-component_of_WINDS"},"data":[0,0,0,0,0,0,0,0,0,0,0,0,0,0,0,0,0,0,0,0,0,0,0,0,0,0,0,0,0,0,0,0,0,0,0,0,0,0,0,0,0,0,0,0,0,0,0,0,0,0,0,0,0,0,0,0,0,0,-5.7872,-5.7873,0,-5.7983,-5.7985,-5.7986,-5.7969,-5.7967,-5.7965,-5.7963,-5.8073,-5.8077,-5.8082,0,0,0,0,0,0,0,0,0,0,0,0,0,-5.7644,-5.7648,-5.7872,-5.7874,-5.7875,-5.7983,-5.7985,-5.7986,-5.7969,-5.7967,-5.7965,-5.7962,-5.8071,-5.8077,-5.8082,0,0,0,0,0,0,0,0,0,0,0,0,0,-5.7748,-5.765,-5.7872,-5.788,-5.7881,-5.7983,-5.7985,-5.7987,-5.797,-5.7967,-5.7964,-5.7961,-5.807,-5.8076,-5.8083,-5.8183,0,0,-5.8105,-5.8108,0,0,0,0,0,0,0,0,-5.7742,-5.7756,-5.7877,-5.7879,-5.7882,-5.7959,-5.7944,-5.8052,-5.797,-5.7936,-5.7963,-5.796,-5.8037,-5.8047,-5.8073,-5.8188,-5.8192,-5.8105,-5.8109,-5.8112,-5.8114,0,0,0,0,0,0,0,-5.7735,-5.7751,-5.7916,-5.7879,-5.7882,-5.7877,-5.7889,-5.7965,-5.8001,-5.7939,-5.7938,-5.7951,-5.8038,-5.8067,-5.8076,-5.8194,-5.8105,-5.8111,-5.8116,-5.8118,-5.8399,-5.8402,0,0,0,0,0,0,-5.7726,-5.7745,-5.7912,-5.7919,-5.7803,-5.7884,-5.7897,-5.7937,-5.8,-5.8007,-5.7954,-5.795,-5.8056,-5.8068,-5.808,-5.8202,-5.8112,-5.8119,-5.8123,-5.8395,-5.8399,-5.8403,0,0,0,0,0,0,-5.7721,-5.7741,-5.7908,-5.7832,-5.7853,-5.789,-5.7936,-5.7941,-5.797,-5.8011,-5.8017,-5.7977,-5.8054,-5.807,-5.8158,-5.8205,-5.8122,-5.8128,-5.8392,-5.8397,-5.8401,-5.8446,0,0,0,0,0,0,-5.7714,-5.7739,-5.7777,-5.7833,-5.7857,-5.7985,-5.7939,-5.7945,-5.7983,-5.7979,-5.8035,-5.8041,-5.8053,-5.8148,-5.8165,-5.8214,-5.8134,-5.8387,-5.8394,-5.84,-5.8441,-5.8452,-5.8462,0,0,0,0,0,-5.7706,-5.7784,-5.7779,-5.78,-5.7906,-5.7988,-5.8002,-5.8015,-5.7986,-5.8025,-5.8053,-5.8039,-5.8198,-5.8157,-5.8176,-5.8228,-5.8384,-5.8392,-5.8399,-5.8436,-5.845,-5.8462,0,0,0,0,0,0,-5.773,-5.7791,-5.7787,-5.7885,-5.7932,-5.7985,-5.8034,-5.8029,-5.8084,-5.8078,-5.8091,-5.8104,-5.8194,-5.822,-5.8173,-5.8329,-5.8287,-5.8299,-5.8308,-5.8322,-5.8332,-5.8324,-5.814,0,0,0,0,0,-5.7748,-5.781,-5.7859,-5.7941,-5.7965,-5.7996,-5.8032,-5.8039,-5.8087,-5.8106,-5.814,-5.8186,-5.8247,-5.8286,-5.8343,-5.8445,-5.8457,-5.849,-5.85,-5.8509,-5.8518,-5.8576,-5.8591,-5.8427,-5.8427,-5.8427,0,0,-5.7783,-5.7824,-5.7862,-5.7947,-5.7984,-5.8048,-5.8012,-5.8081,-5.8128,-5.8116,-5.8202,-5.8229,-5.8282,-5.8378,-5.8421,-5.8402,-5.8567,-5.8518,-5.8525,-5.853,-5.8585,-5.8601,-5.8615,-5.8432,-5.8431,-5.843,0,0,-5.788,-5.7917,-5.799,-5.8029,-5.8087,-5.8107,-5.8125,-5.818,-5.8198,-5.8285,-5.8278,-5.8335,-5.8438,-5.8477,-5.851,-5.8626,-5.8617,-5.8645,-5.8699,-5.8755,-5.8768,-5.878,-5.8822,-5.8837,-5.8654,-5.8654,-5.8654,0,-5.7915,-5.8013,-5.8028,-5.8099,-5.8138,-5.8132,-5.8207,-5.8244,-5.8316,-5.8343,-5.832,-5.8452,-5.8487,-5.8593,-5.8622,-5.8649,-5.867,-5.8637,-5.8765,-5.8777,-5.8788,-5.8829,-5.8844,-5.8657,-5.8657,-5.8657,-5.8656,0,-5.8055,-5.8122,-5.8175,-5.8248,-5.8293,-5.8365,-5.8392,-5.8435,-5.8439,-5.8462,-5.8552,-5.8595,-5.8662,-5.8688,-5.8691,-5.8795,-5.8782,-5.8762,-5.872,-5.8807,-5.8845,-5.8861,-5.8662,-5.8661,-5.866,-5.8659,0,0,-5.8167,-5.8251,-5.827,-5.8305,-5.8369,-5.8422,-5.8494,-5.8563,-5.86,-5.8651,-5.8713,-5.8802,-5.8786,-5.8824,-5.8832,-5.8881,-5.8973,-5.8856,-5.8858,-5.8877,-5.9091,-5.9105,-5.9123,-5.8967,-5.897,-5.8973,-5.9087,0,-5.8271,-5.8401,-5.8419,-5.8534,-5.8597,-5.8595,-5.8659,-5.8706,-5.873,-5.8787,-5.8813,-5.8877,-5.885,-5.8873,-5.8922,-5.8951,-5.9016,-5.8943,-5.9024,-5.9027,-5.9011,-5.9143,-5.9158,-5.9263,-5.9102,-5.9105,-5.9107,0,-5.8408,-5.8466,-5.8588,-5.8647,-5.8675,-5.8731,-5.8797,-5.8852,-5.8905,-5.892,-5.8964,-5.8967,-5.9043,-5.9,-5.9105,-5.9055,-5.909,-5.9109,-5.9114,-5.9121,-5.9072,-5.9154,-5.9297,-5.9313,-5.913,-5.9128,-5.9127,0,-5.8479,-5.8587,-5.8675,-5.8705,-5.8775,-5.8816,-5.8847,-5.8898,-5.8939,-5.8996,-5.9023,-5.9087,-5.9122,-5.9172,-5.9193,-5.9159,-5.9297,-5.9255,-5.9311,-5.9311,-5.9339,-5.9337,-5.949,-5.9362,-5.9362,-5.9362,-5.9361,0,-5.8593,-5.8667,-5.8708,-5.8762,-5.8847,-5.8867,-5.895,-5.898,-5.9026,-5.9085,-5.9087,-5.9143,-5.9167,-5.9227,-5.9243,-5.9329,-5.9344,-5.9358,-5.9361,-5.9358,-5.9356,-5.938,-5.9373,-5.9366,-5.9365,-5.9364,-5.9363,0,-5.8685,-5.8716,-5.8811,-5.8872,-5.8889,-5.8949,-5.9,-5.9053,-5.9078,-5.9154,-5.9173,-5.9212,-5.9282,-5.9309,-5.9394,-5.9405,-5.9504,-5.9501,-5.9487,-5.9487,-5.9543,-5.9537,-5.9716,-5.9741,-5.9596,-5.9598,-5.9599,0,-5.8755,-5.8813,-5.8882,-5.8923,-5.8956,-5.9022,-5.9065,-5.9088,-5.9132,-5.92,-5.9244,-5.9316,-5.9373,-5.9487,-5.9522,-5.9588,-5.9587,-5.9645,-5.9596,-5.9592,-5.9589,-5.9585,-5.9591,-5.9654,-5.9655,-5.9656,-5.9657,0,-5.8877,-5.8891,-5.8953,-5.9022,-5.9073,-5.9128,-5.9181,-5.9214,-5.9246,-5.9295,-5.9369,-5.9414,-5.9504,-5.9574,-5.9643,-5.9674,-5.9672,-5.9673,-5.9689,-5.9686,-5.9675,-5.9683,-5.9511,-5.9668,-5.9667,-5.9666,-5.9666,-5.9665,-5.8961,-5.9014,-5.9071,-5.9141,-5.9184,-5.9235,-5.9288,-5.9321,-5.9384,-5.9459,-5.9469,-5.9549,-5.9603,-5.9695,-5.973,-5.9792,-5.9777,-5.98,-5.9806,-5.9812,-5.9816,-5.9666,-5.9805,-5.9804,-5.9804,-5.9804,-5.9804,0,-5.9084,-5.9122,-5.9186,-5.9262,-5.9317,-5.9313,-5.9372,-5.9418,-5.9489,-5.9541,-5.9599,-5.9685,-5.9754,-5.9797,-5.9867,-5.9909,-5.9909,-5.9926,-5.9923,-5.9931,-5.9826,-5.9805,-5.9925,-5.9925,-5.9925,-5.9925,-5.9925,-5.9925,-5.9154,-5.9244,-5.9264,-5.9375,-5.9412,-5.9492,-5.9526,-5.9573,-5.9615,-5.9711,-5.977,-5.9798,-5.9847,-5.9921,-5.9985,-5.9996,-6.0021,-6.004,-6.0049,-5.995,-5.9938,-5.9926,-5.9906,-6.0045,-6.0045,-6.0149,-6.015,-6.0151]}]]